Location: downtown San Diego
(32.7310°N, 117.1990°W)
Time: 02:10:17
(UTC-07:00)

NOAA 11 - Pass Details

Date: 12 July 2018
Orbit: 833 x 850 km, 98.5° (Epoch: 19 September)

Event Time Altitude Azimuth Distance (km) Brightness Sun altitude
Exits shadow 21:01:07 - 168° (SSE) 2,696 6.4 -12.0°
Reaches altitude 10° 21:01:47 10° 168° (SSE) 2,433 6.2 -12.1°
Maximum altitude 21:07:11 86° 256° (WSW) 842 4.2 -13.1°
Drops below altitude 10° 21:12:39 10° 346° (NNW) 2,455 7.4 -14.0°
Sets 21:15:01 0° 347° (NNW) 3,395 8.2 -14.4°
